OBJECT_NAME,OBJECT_ID,EPOCH,MEAN_MOTION,ECCENTRICITY,INCLINATION,RA_OF_ASC_NODE,ARG_OF_PERICENTER,MEAN_ANOMALY,EPHEMERIS_TYPE,CLASSIFICATION_TYPE,NORAD_CAT_ID,ELEMENT_SET_NO,REV_AT_EPOCH,BSTAR,MEAN_MOTION_DOT,MEAN_MOTION_DDOT SKYSAT-A,2013-066C,2026-09-12T01:59:30.471648,15.13388300,.0021599,97.3733,301.6959,18.0720,342.1274,0,U,39418,999,70162,.13455E-3,.2349E-4,0 SKYSAT-B,2014-037D,2026-09-11T20:44:15.743040,14.88210501,.0005759,98.3937,218.8236,11.0569,349.0772,0,U,40072,999,65885,.11086E-3,.961E-5,0 SKYSAT-C1,2016-040C,2026-09-12T00:04:04.611360,15.37570309,.0004249,96.9514,282.0704,80.3328,279.8397,0,U,41601,999,57120,.18145E-3,.6615E-4,0 SKYSAT-C4,2016-058B,2026-09-12T01:00:43.874208,15.51094270,.0000496,96.9155,273.3185,44.1443,315.9850,0,U,41771,999,55892,.22406E-3,.12967E-3,0 SKYSAT-C5,2016-058C,2026-09-12T01:09:44.135136,15.34168806,.0001978,97.0397,291.7347,24.1135,336.0201,0,U,41772,999,55706,.15421E-3,.5025E-4,0 SKYSAT-C2,2016-058D,2026-09-12T00:46:09.062112,15.43818551,.0005067,97.0145,273.9556,93.4465,266.7364,0,U,41773,999,55844,.19037E-3,.8544E-4,0 SKYSAT-C3,2016-058E,2026-09-12T01:20:49.827264,15.56070915,.0002076,96.8952,282.7486,75.2432,284.9054,0,U,41774,999,55960,.27757E-3,.19279E-3,0 SKYSAT-C11,2017-068A,2026-09-12T03:48:56.965824,15.62501942,.0001054,97.4452,48.1330,66.3428,293.7940,0,U,42987,999,49680,.34443E-3,.30571E-3,0 SKYSAT-C10,2017-068B,2026-09-11T21:48:13.928256,15.36017756,.0001401,97.4623,32.7512,86.3370,273.8034,0,U,42988,999,49566,.21278E-3,.738E-4,0 SKYSAT-C9,2017-068C,2026-09-11T23:18:23.917824,15.43466935,.0008004,97.4544,34.6132,174.2238,185.9104,0,U,42989,999,49613,.24895E-3,.11069E-3,0 SKYSAT-C8,2017-068D,2026-09-11T22:33:18.768384,15.38491765,.0001593,97.4641,32.9218,90.6883,269.4544,0,U,42990,999,49564,.22699E-3,.8537E-4,0 SKYSAT-C7,2017-068E,2026-09-11T22:28:28.339104,15.38438048,.0006418,97.4655,33.9143,145.4966,214.6696,0,U,42991,999,49570,.23095E-3,.8678E-4,0 SKYSAT-C6,2017-068F,2026-09-12T03:45:55.443744,15.34045380,.0001511,97.4704,33.6785,138.2606,221.8752,0,U,42992,999,49565,.2052E-3,.6678E-4,0 SKYSAT-C12,2018-099AR,2026-09-12T01:01:42.858624,15.51489585,.0003973,96.9236,274.9298,171.9311,188.2007,0,U,43797,999,43531,.2309E-3,.13559E-3,0 FLOCK 4Q-16,2023-174R,2026-09-11T19:32:10.291200,15.52829603,.0005835,97.3780,345.1185,205.3545,154.7422,0,U,58271,999,15900,.35561E-3,.21982E-3,0 FLOCK 4Q-11,2023-174T,2026-09-12T01:21:51.869376,15.55997109,.0006532,97.3813,346.1597,205.3563,154.7372,0,U,58273,999,15906,.93794E-3,.65607E-3,0 PELICAN-1,2023-174AS,2026-09-12T02:19:45.221088,15.68531144,.0001737,97.4022,0.6573,29.9403,330.1957,0,U,58296,999,15981,.43177E-4,.4751E-4,0 FLOCK 4Q-2,2023-174BS,2026-09-12T04:53:23.074656,15.53400613,.0005748,97.3828,345.9468,167.5448,192.5949,0,U,58320,999,15909,.37056E-3,.23391E-3,0 FLOCK 4Q-9,2023-174BU,2026-09-12T01:34:09.217344,15.54251308,.0006435,97.3820,345.9784,170.9817,189.1553,0,U,58322,999,15906,.42135E-3,.27463E-3,0 FLOCK 4Q-4,2023-174BZ,2026-09-12T05:01:05.807136,15.52309334,.0004724,97.3787,345.0603,192.7268,167.3866,0,U,58327,999,15904,.34274E-3,.20782E-3,0 FLOCK 4Q-13,2023-174CA,2026-09-12T04:58:15.160224,15.55482183,.0005879,97.3990,348.7975,176.3875,183.7423,0,U,58328,999,15918,.32552E-3,.22153E-3,0 FLOCK 4BE-18,2024-149N,2026-09-12T00:50:23.493696,15.44761924,.0002368,97.3687,339.8173,303.6542,56.4480,0,U,60480,999,11570,.69518E-3,.32516E-3,0 FLOCK 4BE-7,2024-149P,2026-09-12T04:08:03.339168,15.43867507,.000144,97.3719,339.1774,319.3195,40.7946,0,U,60481,999,11565,.62438E-3,.28308E-3,0 FLOCK 4BE-36,2024-149U,2026-09-11T19:14:43.492128,15.47241122,.0002231,97.3705,340.4753,297.3747,62.7276,0,U,60486,999,11572,.67531E-3,.34389E-3,0 FLOCK 4BE-25,2024-149V,2026-09-11T18:33:20.707776,15.41134380,.0001095,97.3758,338.6202,332.2644,27.8544,0,U,60487,999,11556,.62795E-3,.25977E-3,0 FLOCK 4BE-31,2024-149W,2026-09-11T23:02:45.720096,15.47618695,.0001306,97.3762,341.7181,330.6893,29.4284,0,U,60488,999,11578,.71763E-3,.37041E-3,0 FLOCK 4BE-20,2024-149X,2026-09-11T19:11:11.629824,15.43399713,.0003318,97.3641,337.4058,277.0078,83.0792,0,U,60489,999,11554,.10674E-2,.47828E-3,0 FLOCK 4BE-23,2024-149Y,2026-09-12T04:23:25.838880,15.39931783,.000241,97.3735,338.1123,342.8774,17.2390,0,U,60490,999,11557,.55257E-3,.2195E-3,0 FLOCK 4BE-17,2024-149AA,2026-09-12T04:02:47.179104,15.42424831,.0001684,97.3728,339.3517,316.5994,43.5120,0,U,60492,999,11565,.60682E-3,.26203E-3,0 FLOCK 4BE-22,2024-149AC,2026-09-12T00:00:58.338144,15.44064713,.0002263,97.3692,339.5290,329.2402,30.8713,0,U,60494,999,11568,.67186E-3,.30682E-3,0 FLOCK 4BE-34,2024-149AD,2026-09-11T18:14:05.208000,15.44029903,.0002488,97.3742,340.1616,345.7606,14.3571,0,U,60495,999,11567,.61743E-3,.28147E-3,0 FLOCK 4BE-32,2024-149AF,2026-09-11T23:46:20.155584,15.45219587,.0002495,97.3676,340.0123,335.7575,24.3556,0,U,60497,999,11572,.65909E-3,.31302E-3,0 FLOCK 4BE-11,2024-149AK,2026-09-12T04:46:27.318720,15.46108082,.0002491,97.3659,340.5340,327.1331,32.9764,0,U,60501,999,11578,.65809E-3,.32221E-3,0 FLOCK 4BE-24,2024-149AP,2026-09-12T00:59:14.862336,15.46457267,.0002762,97.3677,340.6832,341.4085,18.7063,0,U,60505,999,11577,.73766E-3,.36585E-3,0 TANAGER-1,2024-149AR,2026-09-11T23:57:56.144736,15.43937619,.0001021,97.2293,348.7661,29.0171,331.1134,0,U,60507,999,11643,.29079E-3,.13145E-3,0 FLOCK 4BE-29,2024-149AT,2026-09-12T04:58:17.429088,15.48737648,.0002374,97.3785,342.6725,37.4587,322.6829,0,U,60509,999,11586,.32673E-3,.1744E-3,0 FLOCK 4BE-13,2024-149AW,2026-09-11T19:06:47.925792,15.44380178,.0003071,97.3684,340.2253,328.3208,31.7855,0,U,60512,999,11572,.65955E-3,.30442E-3,0 FLOCK 4BE-27,2024-149AX,2026-09-11T18:10:32.422944,15.35789060,.0003859,97.3783,336.7094,17.5483,342.5893,0,U,60513,999,11542,.21753E-3,.7494E-4,0 FLOCK 4BE-9,2024-149AY,2026-09-12T01:02:34.828224,15.43533739,.0002222,97.3754,340.2938,10.6810,349.4485,0,U,60514,999,11570,.67678E-3,.30358E-3,0 FLOCK 4BE-6,2024-149BA,2026-09-12T05:06:08.665056,15.42059801,.0002761,97.3749,339.6419,2.1933,357.9326,0,U,60516,999,11567,.5808E-3,.24769E-3,0 FLOCK 4BE-14,2024-149BB,2026-09-12T00:59:57.817824,15.43844208,.0003513,97.3654,339.7030,353.7448,6.3756,0,U,60517,999,11571,.68986E-3,.31279E-3,0 FLOCK 4BE-1,2024-149BC,2026-09-12T00:39:37.971648,15.45643273,.000321,97.3745,341.2911,354.6190,5.5024,0,U,60518,999,11577,.70499E-3,.33989E-3,0 FLOCK 4BE-28,2024-149BD,2026-09-11T18:52:01.308000,15.49797020,.0003009,97.3714,342.1801,4.9414,355.1866,0,U,60519,999,11583,.35957E-3,.19937E-3,0 FLOCK 4BE-5,2024-149CV,2026-09-12T04:58:52.656096,15.42976400,.000246,97.3806,340.1742,354.8304,5.2917,0,U,60559,999,11568,.68178E-3,.30014E-3,0 FLOCK 4BE-3,2024-149CX,2026-09-12T04:23:55.551840,15.44444909,.0002843,97.3655,340.0695,346.6048,13.5124,0,U,60561,999,11575,.60627E-3,.28028E-3,0 FLOCK 4BE-19,2024-149CZ,2026-09-12T00:54:45.029952,15.48293029,.0003765,97.3706,341.9653,346.2819,13.8329,0,U,60563,999,11584,.80062E-3,.42351E-3,0 FLOCK 4G-8,2025-009E,2026-09-11T18:42:06.052608,15.31301501,.0004163,97.3962,336.4874,28.8000,331.3471,0,U,62613,999,9216,.35537E-3,.10673E-3,0 FLOCK 4G-13,2025-009N,2026-09-11T18:04:09.475680,15.60601301,.0002599,97.3884,340.4668,286.9493,73.1479,0,U,62621,999,9242,.15942E-2,.133604E-2,0 FLOCK 4G-9,2025-009P,2026-09-11T16:11:24.871488,15.29372420,.00050105,97.3917,335.0427,35.5425,324.6148,0,U,62622,999,9207,.22951823E-3,.6464E-4,0 FLOCK 4G-7,2025-009R,2026-09-12T00:57:45.980928,15.30812516,.0002929,97.3896,335.9340,43.0291,317.1179,0,U,62624,999,9218,.27533E-3,.8124E-4,0 FLOCK 4G-12,2025-009S,2026-09-12T04:02:27.231936,15.30768752,.0004034,97.3982,336.6684,23.9279,336.2149,0,U,62625,999,9220,.23322E-3,.686E-4,0 FLOCK 4G-11,2025-009W,2026-09-12T00:24:46.717632,15.30968453,.0003081,97.3880,336.0107,41.8865,318.2611,0,U,62629,999,9219,.28421E-3,.8429E-4,0 PELICAN-2,2025-009Y,2026-09-11T19:37:08.298624,15.40719095,.000088,97.2047,344.5224,46.8255,313.3065,0,U,62631,999,9289,.16151E-3,.6515E-4,0 FLOCK 4G-26,2025-009AA,2026-09-12T00:32:55.376160,15.31142374,.0003152,97.3974,336.7119,21.6755,338.4619,0,U,62633,999,9219,.25535E-3,.7606E-4,0 FLOCK 4G-28,2025-009AB,2026-09-12T04:25:46.949952,15.36167170,.0002053,97.3993,340.1244,43.7076,316.4330,0,U,62634,999,9243,.19766E-3,.6883E-4,0 FLOCK 4G-24,2025-009AE,2026-09-11T18:19:59.144736,15.31355115,.0002723,97.3987,336.7842,12.7130,347.4180,0,U,62637,999,9217,.26123E-3,.7834E-4,0 FLOCK 4G-3,2025-009AG,2026-09-12T00:52:16.502304,15.30922306,.0002537,97.3984,336.7235,26.6320,333.5051,0,U,62639,999,9218,.26452E-3,.7828E-4,0 FLOCK 4G-27,2025-009AJ,2026-09-11T19:08:49.913952,15.30816325,.000235,97.3891,335.7547,40.2930,319.8485,0,U,62641,999,9214,.27381E-3,.8079E-4,0 FLOCK 4G-29,2025-009AK,2026-09-12T00:13:47.341344,15.32960079,.0000935,97.3973,336.7252,337.7266,22.3935,0,U,62642,999,9218,.95123E-3,.30291E-3,0 FLOCK 4G-22,2025-009AN,2026-09-12T04:40:04.818144,15.30808597,.0002146,97.3966,336.8517,29.7111,330.4251,0,U,62645,999,9222,.26639E-3,.7856E-4,0 FLOCK 4G-25,2025-009AP,2026-09-11T23:07:40.968768,15.30999071,.000208,97.3975,336.7266,42.7056,317.4346,0,U,62646,999,9219,.26652E-3,.7906E-4,0 FLOCK 4G-23,2025-009AQ,2026-09-11T22:51:00.809280,15.39331708,.000034,97.3880,336.9471,44.4245,315.7027,0,U,62647,999,9224,.10651E-2,.41666E-3,0 FLOCK 4G-34,2025-009AT,2026-09-12T04:13:49.208736,15.30601614,.0002295,97.3925,336.3561,40.5183,319.6229,0,U,62650,999,9221,.22526E-3,.6587E-4,0 FLOCK 4G-21,2025-009AU,2026-09-12T04:19:07.485600,15.36789811,.0001708,97.3945,337.7947,46.4627,313.6759,0,U,62651,999,9229,.87598E-3,.31502E-3,0 FLOCK 4G-31,2025-009AV,2026-09-11T19:38:14.734176,15.30582929,.0002166,97.3928,335.9654,58.3497,301.7955,0,U,62652,999,9215,.26323E-3,.7707E-4,0 FLOCK 4G-4,2025-009BC,2026-09-12T00:44:16.323072,15.35968927,.0002639,97.3896,336.3194,22.3158,337.8200,0,U,62659,999,14981,.94148E-3,.32992E-3,0 FLOCK 4G-6,2025-009BD,2026-09-12T04:27:02.181024,15.30947664,.0003773,97.3897,336.1945,45.1433,315.0114,0,U,62660,999,14980,.26405E-3,.7821E-4,0 FLOCK 4G-2,2025-009BE,2026-09-12T00:48:15.524928,15.31356611,.0004339,97.3966,336.7725,35.7993,324.3538,0,U,62661,999,14981,.28844E-3,.8661E-4,0 FLOCK 4G-5,2025-009BG,2026-09-12T00:13:32.846016,15.31791656,.0003352,97.3988,337.2081,24.4120,335.7280,0,U,62663,999,9222,.23032E-3,.6993E-4,0 FLOCK 4G-1,2025-009BK,2026-09-12T00:32:49.716960,15.31259101,.0004401,97.3977,336.7412,32.0687,328.0821,0,U,62666,999,9219,.2903E-3,.8691E-4,0 FLOCK 4G-14,2025-009BL,2026-09-12T04:51:30.335616,15.30790611,.0004447,97.3983,336.6776,27.4613,332.6862,0,U,62667,999,9220,.26332E-3,.7761E-4,0 FLOCK 4G-10,2025-009BP,2026-09-11T18:02:02.364864,15.30915132,.0004848,97.3882,335.4562,44.6076,315.5555,0,U,62670,999,14977,.29522E-3,.8746E-4,0 FLOCK 4G-36,2025-009BU,2026-09-11T19:29:25.649088,15.30890965,.0004866,97.3975,336.2087,31.7322,328.4211,0,U,62675,999,9214,.29164E-3,.8632E-4,0 FLOCK 4G-15,2025-009BX,2026-09-11T17:58:33.409056,15.31013617,.0004914,97.3971,336.3018,27.6505,332.4996,0,U,62678,999,14978,.27447E-3,.815E-4,0 FLOCK 4G-30,2025-009BY,2026-09-12T04:42:09.106272,15.38274982,.0002293,97.3866,336.6872,30.8671,329.2708,0,U,62679,999,14989,.92231E-3,.34819E-3,0 FLOCK 4G-18,2025-009BZ,2026-09-11T22:58:14.124288,15.36202768,.0004306,97.3958,336.7480,32.7100,327.4410,0,U,62680,999,14983,.99889E-3,.35288E-3,0 FLOCK 4G-17,2025-009CA,2026-09-11T18:29:15.332640,15.31110130,.0005004,97.3875,335.7320,42.6260,317.5369,0,U,62681,999,14979,.27687E-3,.8247E-4,0 FLOCK 4G-33,2025-009CE,2026-09-12T04:49:27.170688,15.26382264,.0006059,97.3901,334.1050,37.8271,322.3392,0,U,62685,999,9207,.16234E-3,.4151E-4,0 PELICAN-3,2025-188A,2026-09-11T22:16:43.862880,15.41059875,.0000891,97.1902,329.7787,51.1597,308.9729,0,U,65315,999,5867,.14626E-3,.5959E-4,0 PELICAN-4,2025-188B,2026-09-12T03:49:54.365664,15.41068686,.0002693,97.1934,330.1299,115.8268,244.3257,0,U,65316,999,5870,.16364E-3,.668E-4,0 PELICAN-5,2025-276B,2026-09-11T17:39:29.382336,15.35948444,.0001758,97.3937,329.9356,117.5012,242.6411,0,U,66667,999,4378,.84973E-3,.29735E-3,0 PELICAN-6,2025-276AP,2026-09-12T04:23:19.819392,15.34853097,.0002212,97.3330,329.8718,101.5806,258.5686,0,U,66703,999,4385,.41739E-3,.14037E-3,0 FLOCK 4H-1,2025-276AQ,2026-09-11T18:11:17.630880,15.21428324,.0002798,97.4116,327.0944,52.3816,307.7673,0,U,66704,999,4359,.23565E-3,.5223E-4,0 FLOCK 4H-2,2025-276AR,2026-09-12T04:19:01.422048,15.21792318,.0002303,97.4111,327.5833,64.5933,295.5541,0,U,66705,999,4366,.21439E-3,.4796E-4,0 FLOCK 4H-3,2025-276AS,2026-09-11T17:51:53.683776,15.20861257,.0005309,97.4182,327.0534,69.9578,290.2228,0,U,66706,999,4357,.2446E-3,.5335E-4,0 FLOCK 4H-4,2025-276AT,2026-09-11T18:54:38.599200,15.20680980,.0005982,97.4161,326.9324,70.4489,289.7392,0,U,66707,999,4357,.30067E-3,.6541E-4,0 FLOCK 4H-5,2025-276AU,2026-09-12T00:16:22.150272,15.21474305,.0002052,97.4116,327.3682,76.4426,283.7038,0,U,66708,999,4363,.21548E-3,.4776E-4,0 FLOCK 4H-6,2025-276AV,2026-09-11T17:44:12.579936,15.21194186,.0004108,97.4163,327.1594,52.5187,307.6422,0,U,66709,999,4358,.13886E-3,.3028E-4,0 FLOCK 4H-7,2025-276AW,2026-09-12T04:32:55.131072,15.21028450,.0003935,97.4123,327.3092,89.7179,270.4508,0,U,66710,999,4364,.21448E-3,.4692E-4,0 FLOCK 4H-8,2025-276AX,2026-09-11T18:45:09.148896,15.21143237,.0005019,97.4167,327.0976,76.5451,283.6344,0,U,66711,999,4358,.21819E-3,.4791E-4,0 FLOCK 4H-9,2025-276AY,2026-09-11T18:47:43.753920,15.21460626,.0004302,97.4154,327.2143,55.7138,304.4505,0,U,66712,999,4359,.22688E-3,.5031E-4,0 FLOCK 4H-10,2025-276AZ,2026-09-12T03:53:31.582176,15.20785874,.0005788,97.4129,327.2203,69.5992,290.5864,0,U,66713,999,4363,.24115E-3,.5248E-4,0 FLOCK 4H-12,2025-276BB,2026-09-11T18:27:55.308960,15.21470682,.0002996,97.4126,327.1184,56.5905,303.5617,0,U,66715,999,4390,.2352E-3,.5219E-4,0 FLOCK 4H-13,2025-276BC,2026-09-11T17:41:32.472096,15.21518317,.0001822,97.4160,327.2921,58.9822,301.1593,0,U,66716,999,4359,.21154E-3,.4693E-4,0 FLOCK 4H-14,2025-276BD,2026-09-11T17:52:41.894112,15.22050603,.0001737,97.4143,327.3751,64.2196,295.9219,0,U,66717,999,4285,.26724E-3,.6042E-4,0 FLOCK 4H-15,2025-276BE,2026-09-12T03:12:45.130752,15.21234520,.0004832,97.4155,327.2113,79.7583,280.4198,0,U,66718,999,4362,.7198E-3,.16028E-3,0 FLOCK 4H-16,2025-276BF,2026-09-12T04:03:25.058592,15.20792987,.0005688,97.4171,327.3766,70.7305,289.4545,0,U,66719,999,4363,.2176E-3,.4729E-4,0 FLOCK 4H-18,2025-276BH,2026-09-12T04:15:37.372032,15.20722830,.0005445,97.4114,327.1486,87.2802,272.9056,0,U,66721,999,4363,.19651E-3,.4255E-4,0 FLOCK 4H-19,2025-276BJ,2026-09-11T17:42:16.949088,15.21840309,.0001842,97.4115,327.2797,44.0788,316.0594,0,U,66722,999,4289,.1969E-3,.4405E-4,0 FLOCK 4H-20,2025-276BK,2026-09-11T17:33:56.822688,15.22093721,.0002925,97.4153,327.4277,33.7626,326.3796,0,U,66723,999,4285,.23526E-3,.5317E-4,0 FLOCK 4H-21,2025-276BL,2026-09-12T04:09:37.104768,15.21701782,.0002714,97.4117,327.6243,37.1062,323.0361,0,U,66724,999,4291,.2111E-3,.4709E-4,0 FLOCK 4H-22,2025-276BM,2026-09-12T04:07:12.148032,15.21193941,.0004232,97.4108,327.2812,89.1920,270.9800,0,U,66725,999,4364,.22151E-3,.4872E-4,0 FLOCK 4H-23,2025-276BN,2026-09-11T17:12:44.189568,15.20695468,.0005722,97.4180,326.9302,65.6519,294.5313,0,U,66726,999,4356,.2114E-3,.4579E-4,0 FLOCK 4H-24,2025-276BP,2026-09-12T03:47:31.867008,15.20827989,.0005503,97.4173,327.4003,76.9303,283.2547,0,U,66727,999,4363,.24368E-3,.531E-4,0 FLOCK 4H-25,2025-276BQ,2026-09-11T17:38:57.626016,15.21559327,.0001482,97.4133,327.1840,70.6890,289.4506,0,U,66728,999,4287,.20508E-3,.4553E-4,0 FLOCK 4H-26,2025-276BR,2026-09-12T03:16:57.345312,15.20536715,.0006199,97.4128,327.1006,74.3328,285.8591,0,U,66729,999,4362,.24808E-3,.5361E-4,0 FLOCK 4H-27,2025-276BS,2026-09-11T15:23:29.110560,15.21393997,.00019143,97.4107,326.9105,76.8473,283.2977,0,U,66730,999,4357,.23333876E-3,.5165E-4,0 FLOCK 4H-29,2025-276BU,2026-09-11T18:45:54.847584,15.20669452,.0004922,97.4109,326.7298,85.5395,274.6403,0,U,66732,999,4357,.22115E-3,.479E-4,0 FLOCK 4H-30,2025-276BV,2026-09-12T03:55:19.786080,15.20811215,.0005699,97.4168,327.3722,75.9108,284.2761,0,U,66733,999,4363,.24007E-3,.5227E-4,0 FLOCK 4H-31,2025-276BW,2026-09-11T17:35:44.780352,15.20555111,.0005309,97.4106,326.6383,83.5475,276.6364,0,U,66734,999,4356,.23385E-3,.5052E-4,0 FLOCK 4H-32,2025-276BX,2026-09-12T04:14:58.161984,15.20672618,.0005983,97.4161,327.3245,72.1131,288.0756,0,U,66735,999,4363,.20444E-3,.4423E-4,0 FLOCK 4H-33,2025-276BY,2026-09-12T03:47:02.574816,15.21790329,.0002357,97.4157,327.7953,34.2353,325.9035,0,U,66736,999,4366,.23755E-3,.5322E-4,0 FLOCK 4H-34,2025-276BZ,2026-09-12T03:46:54.338304,15.21456928,.0002796,97.4174,327.7018,39.7084,320.4356,0,U,66737,999,4290,.22782E-3,.5051E-4,0 FLOCK 4H-35,2025-276CA,2026-09-11T22:21:58.665600,15.21556411,.0001976,97.4133,327.3941,36.6497,323.4874,0,U,66738,999,4291,.2147E-3,.477E-4,0 FLOCK 4H-36,2025-276CB,2026-09-12T04:13:02.041248,15.21386489,.0003216,97.4182,327.7098,45.9844,314.1656,0,U,66739,999,4365,.21227E-3,.4691E-4,0 EDDA-1,2026-100AP,2026-09-12T03:31:54.253344,15.25074482,.0002939,97.3532,151.6266,119.4097,240.7435,0,U,69017,999,2005,.90841E-4,.2201E-4,0 PELICAN-8,2026-100AQ,2026-09-12T04:02:42.059040,15.26980171,.0003433,97.3206,151.5591,115.6572,244.5022,0,U,69018,999,2007,.56555E-3,.14923E-3,0 PELICAN-9,2026-100AR,2026-09-12T04:01:28.339968,15.26781366,.0003626,97.2688,151.1292,108.6596,251.5037,0,U,69019,999,2005,.56179E-3,.14735E-3,0 PELICAN-11,2026-156C,2026-09-09T15:09:35.267616,14.94221909,.0003836,97.7270,152.0727,9.9258,350.2038,0,U,69871,999,940,.20426E-4,.163E-5,0